User: anonymous   Login
Location: Oshawa
(43.9000°N, 78.8670°W)
Time: 21:01:10
(UTC-04:00)
Language:

CZ-4C R/B - Orbit

View from above orbital plane
View from above orbital plane
View from above satellite
View from above satellite

Ground track
Ground track

The orbit data is extracted from the following two-line orbital elements,

1 32290U 07055B   16204.86947408 +.00002883 +00000-0 +87348-4 0  9997
2 32290 097.5271 299.1069 0069358 223.9362 135.6353 15.32678199481261
Epoch (UTC): 22 July 2016 20:52:02
Eccentricity: 0.0069358
inclination: 97.5271°
perigee height: 420 km
apogee height: 515 km
right ascension of ascending node: 299.1069°
argument of perigee: 223.9362°
revolutions per day: 15.32678199
mean anomaly at epoch: 135.6353°
orbit number at epoch: 48126

The dashed part of the orbit path shows where the satellite is in the earth's shadow,  

DLR